weather.gov     
National Weather Service

Regional Weather Roundup
NWS Homepage
This page is being discontinued on March 12, 2014.
The same data is available at this site. Please update your bookmarks.
Thank you, and we apologize for the inconvenience.
Please send an email to SR-SRH.Webmaster@noaa.gov with any concerns.


Current Version
Previous Version:    01  02  03  04  05  06  07  08  09  10  11  12  13  14  15  16  17  18  19  20  21  22  23  24  25  26  27  28  29  30  
   31  32  33  34  35  36  37  38  39  40  41  42  43  44  45  46  47  48  49  50  51  52  53  
[Printable]
940
ASUS41 KCTP 311910
RWRCTP

REGIONAL WEATHER ROUNDUP
NATIONAL WEATHER SERVICE STATE COLLEGE PA
300 PM EDT THU JUL 31 2014

Note: "fair" indicates few or no clouds below 12,000 feet with no
significant weather and/or obstructions to visibility.

* = STATION THAT DOES NOT REPORT PRECIPITATION /E.G. RAIN...SNOW...ETC/
    THUNDER OR FOG.

PAZ002>004-007>009-013>016-020>023-029>032-312000-
WESTERN PENNSYLVANIA

CITY           SKY/WX    TMP DP  RH WIND       PRES   REMARKS
ERIE           SUNNY     73  54  51 W13G20    30.07R
MEADVILLE      MOSUNNY   73  51  46 W13       30.09S
FRANKLIN*      MOSUNNY   73  55  53 W12       30.11S
NEW CASTLE     MOCLDY    76  60  57 W8        30.09F
BEAVER COUNTY  MOSUNNY   75  61  60 CALM      30.10S
BUTLER*        MOSUNNY   72  63  73 SW6       30.12S
PITTSBURGH INT PTSUNNY   75  58  55 W9        30.10R
PITTSBURGH     PTSUNNY   77  59  53 SW12      30.10S
INDIANA*       PTSUNNY   73  59  60 W12       30.15S
LATROBE        MOSUNNY   75  63  64 SW12      30.12S
WASHINGTON CO* MOSUNNY   75  63  64 SW9       30.12R
$$

PAZ004>006-010>012-017>019-024>028-033>037-041-042-045-046-049>053-312000-
CENTRAL PENNSYLVANIA

CITY           SKY/WX    TMP DP  RH WIND       PRES   REMARKS
BRADFORD       MOSUNNY   71  50  47 W10G18    30.10S
DUBOIS         MOSUNNY   73  59  61 SW10      30.11S
CLEARFIELD     SUNNY     73  60  63 SW8       30.12F
JOHNSTOWN      PTSUNNY   71  57  61 W12G17    30.15R
ALTOONA        MOSUNNY   77  59  53 W8        30.12S
STATE COLLEGE  MOSUNNY   73  61  64 SW6       30.10F
WILLIAMSPORT   MOSUNNY   74  62  66 E8        30.08F
SELINSGROVE    MOSUNNY   78  63  59 VRB5      30.09S
FT INDIANTOWN  MOSUNNY   79  59  50 SW8       30.09S
CAPITAL CITY   MOSUNNY   81  60  48 SW8       30.08S
HARRISBURG     PTSUNNY   83  61  47 SW6       30.07S
YORK           MOSUNNY   81  59  47 VRB6      30.09S
$$

PAZ038>040-043-044-047-048-054-055-060>062-067>071-312000-
EASTERN PENNSYLVANIA

CITY           SKY/WX    TMP DP  RH WIND       PRES   REMARKS
SCRANTON       PTSUNNY   78  56  46 W13G18    30.09R
MOUNT POCONO   PTSUNNY   72  54  53 W10       30.13S
ALLENTOWN      SUNNY     82  56  40 W13       30.09R
QUAKERTOWN*    PTCLDY    81  57  44 SW7       30.10S
READING        PTSUNNY   81  58  45 SW8       30.07F
LANCASTER      MOSUNNY   80  59  48 S10       30.09S
COATESVILLE    MOCLDY    77  61  57 SW3       30.12R
POTTSTOWN      PTSUNNY   80  59  48 VRB5      30.11S
BLUE BELL      MOSUNNY   82  63  51 W6        30.08S
DOYLESTOWN     SUNNY     81  58  45 SW8G18    30.08F
WILLOW GROVE   NOT AVBL
NORTH PHILA    PTSUNNY   83  57  41 SW13G21   30.10R
PHILADELPHIA   MOSUNNY   84  61  45 W15       30.08F
$$




U.S. Dept. of Commerce
NOAA National Weather Service
1325 East West Highway
Silver Spring, MD 20910
E-mail: w-nws.webmaster@noaa.gov
Page last modified: May 16, 2007
NATIONAL WEATHER SERVICE: for Safety, for Work, for Fun - FOR LIFE